Weather reports worldwide

Advertisment
Cordoba Aeropuerto (AWS), Spain (8410): temperature & dewpoint: 13.08.2019 00:00:00 - 19.08.2019 00:00:00 (CEST)Cordoba Aeropuerto (AWS), Spain (8410): wind speed: 13.08.2019 00:00:00 - 19.08.2019 00:00:00 (CEST)Cordoba Aeropuerto (AWS), Spain (8410): wind direction: 13.08.2019 00:00:00 - 19.08.2019 00:00:00 (CEST)Cordoba Aeropuerto (AWS), Spain (8410): reduced air pressure: 13.08.2019 00:00:00 - 19.08.2019 00:00:00 (CEST)Cordoba Aeropuerto (AWS), Spain (8410): visibility: 13.08.2019 00:00:00 - 19.08.2019 00:00:00 (CEST)
Date & Time tt [°C] td [°C] ff [km/h] ff [kn] dd ppp [hPa] vv [km]
19.08.2019 00:00:00 26,9 13,6 13 7 WSW 1014,0 -
18.08.2019 23:00:00 29,3 12,0 22 12 WSW 1013,3 -
18.08.2019 22:00:00 31,8 10,5 18 10 SW 1011,9 -
18.08.2019 21:00:00 33,7 11,4 18 10 W 1010,7 -
18.08.2019 20:00:00 36,1 11,0 22 12 W 1010,2 40
18.08.2019 19:00:00 37,6 10,3 18 10 WSW 1010,3 -
18.08.2019 18:00:00 37,7 10,1 21 11 WSW 1010,6 -
18.08.2019 17:00:00 37,8 10,0 22 12 WSW 1011,0 40
18.08.2019 16:00:00 37,5 10,0 22 12 WSW 1011,5 -
18.08.2019 15:00:00 36,8 11,1 18 10 WSW 1012,1 -
18.08.2019 14:00:00 35,8 11,0 16 9 WSW 1012,6 -
18.08.2019 13:00:00 33,7 10,5 13 7 W 1013,2 -
18.08.2019 12:00:00 31,5 9,7 11 6 WSW 1013,6 -
18.08.2019 11:00:00 29,3 9,4 5 3 WSW 1013,6 40
18.08.2019 10:00:00 27,1 10,7 2 1 ESE 1013,2 -
18.08.2019 09:00:00 23,1 11,8 2 1 W 1013,0 -
18.08.2019 08:00:00 19,6 10,6 0 0 N 1012,7 40
18.08.2019 07:00:00 20,3 11,2 2 1 S 1012,1 -
18.08.2019 06:00:00 20,5 11,1 2 1 SW 1011,9 -
18.08.2019 05:00:00 21,5 10,9 5 3 SSW 1012,2 -
18.08.2019 04:00:00 23,7 10,0 8 4 WNW 1012,5 -
18.08.2019 03:00:00 24,8 11,0 5 3 W 1012,6 -
18.08.2019 02:00:00 26,5 9,4 9 5 SSW 1012,7 -
18.08.2019 01:00:00 28,7 9,4 11 6 W 1012,1 -
18.08.2019 00:00:00 29,9 9,4 9 5 WSW 1011,8 -
17.08.2019 23:00:00 32,3 8,5 15 8 SW 1011,1 -
17.08.2019 22:00:00 31,2 11,1 9 5 WSW 1010,2 -
17.08.2019 21:00:00 35,9 8,7 9 5 WSW 1009,6 -
17.08.2019 20:00:00 39,2 6,8 15 8 W 1009,3 40
17.08.2019 19:00:00 40,4 6,7 15 8 W 1009,6 -
17.08.2019 18:00:00 41,0 7,1 16 9 W 1010,2 -
17.08.2019 17:00:00 41,0 6,0 13 7 SW 1010,6 40
17.08.2019 16:00:00 40,8 7,0 13 7 W 1011,2 -
17.08.2019 15:00:00 39,6 7,1 8 4 W 1012,3 -
17.08.2019 14:00:00 37,8 9,4 4 2 WNW 1013,2 40
17.08.2019 13:00:00 35,7 10,0 5 3 ENE 1014,1 -
17.08.2019 12:00:00 33,0 9,1 5 3 ENE 1015,0 -
17.08.2019 11:00:00 30,3 10,8 11 6 E 1015,4 40
17.08.2019 10:00:00 27,6 11,6 13 7 E 1015,6 -
17.08.2019 09:00:00 24,9 12,5 4 2 NE 1015,6 -
17.08.2019 08:00:00 21,3 13,5 0 0 N 1015,6 40
17.08.2019 07:00:00 21,2 11,9 4 2 NNW 1015,3 -
17.08.2019 06:00:00 21,9 11,6 9 5 S 1015,1 -
17.08.2019 05:00:00 22,7 11,4 8 4 WSW 1015,0 -
17.08.2019 04:00:00 24,0 12,0 9 5 W 1015,2 -
17.08.2019 03:00:00 25,0 11,5 9 5 W 1015,0 -
17.08.2019 02:00:00 26,7 10,8 5 3 SW 1015,1 -
17.08.2019 01:00:00 28,4 10,1 11 6 SW 1014,9 -
17.08.2019 00:00:00 28,6 11,6 9 5 WSW 1014,6 -
16.08.2019 23:00:00 31,0 11,4 15 8 WSW 1014,0 -
16.08.2019 22:00:00 32,0 11,7 13 7 WSW 1013,1 -
16.08.2019 21:00:00 35,0 10,1 13 7 WSW 1012,4 -
16.08.2019 20:00:00 37,8 9,4 16 9 W 1011,9 40
16.08.2019 19:00:00 39,3 8,9 16 9 W 1012,1 -
16.08.2019 18:00:00 39,8 9,3 16 9 W 1012,3 -
16.08.2019 17:00:00 39,7 9,9 15 8 W 1013,1 40
16.08.2019 16:00:00 39,1 9,6 16 9 WSW 1013,7 -
16.08.2019 15:00:00 37,7 10,9 13 7 W 1014,4 -
16.08.2019 14:00:00 35,9 12,8 8 4 W 1015,3 40
16.08.2019 13:00:00 33,7 13,2 5 3 W 1016,0 -
16.08.2019 12:00:00 31,8 13,1 4 2 NW 1016,6 -
16.08.2019 11:00:00 30,1 12,5 4 2 S 1016,5 40
16.08.2019 10:00:00 27,3 13,3 4 2 ESE 1016,7 -
16.08.2019 09:00:00 25,1 12,7 2 1 NE 1016,5 -
16.08.2019 08:00:00 21,4 12,0 0 0 N 1016,1 40
16.08.2019 07:00:00 31,7 13,0 8 4 SSW 1015,7 -
16.08.2019 06:00:00 31,7 13,0 8 4 S 1015,4 -
16.08.2019 05:00:00 31,7 13,0 8 4 W 1015,6 -
16.08.2019 04:00:00 31,7 13,0 8 4 W 1015,6 -
16.08.2019 03:00:00 31,7 13,0 9 5 W 1015,6 -
16.08.2019 02:00:00 31,7 13,0 8 4 W 1015,5 -
16.08.2019 01:00:00 31,7 13,0 15 8 W 1015,4 -
16.08.2019 00:00:00 31,7 13,0 22 12 SW 1014,9 -
15.08.2019 23:00:00 31,7 13,0 13 7 SW 1014,5 -
15.08.2019 22:00:00 31,7 13,0 9 5 WSW 1013,3 -
15.08.2019 21:00:00 31,7 13,0 9 5 WSW 1012,8 -
15.08.2019 20:00:00 38,7 8,4 9 5 WSW 1012,6 50
15.08.2019 19:00:00 31,7 13,0 13 7 WSW 1012,6 -
15.08.2019 18:00:00 31,7 13,0 11 6 WSW 1012,8 -
15.08.2019 17:00:00 31,7 13,0 9 5 W 1013,4 -
15.08.2019 16:00:00 31,7 13,0 8 4 WSW 1014,2 -
15.08.2019 15:00:00 31,7 13,0 8 4 SSW 1014,9 -
15.08.2019 14:00:00 31,7 13,0 9 5 W 1015,6 -
15.08.2019 13:00:00 31,7 13,0 5 3 WSW 1016,4 -
15.08.2019 12:00:00 31,7 13,0 4 2 SSW 1017,0 -
15.08.2019 11:00:00 28,7 14,3 8 4 E 1017,2 50
15.08.2019 10:00:00 31,7 13,0 8 4 E 1017,2 -
15.08.2019 09:00:00 31,7 13,0 0 0 N 1017,2 -
15.08.2019 08:00:00 31,7 13,0 0 0 N 1017,0 50
15.08.2019 07:00:00 31,7 13,0 8 4 S 1016,5 -
15.08.2019 06:00:00 31,7 13,0 4 2 SW 1016,1 -
15.08.2019 05:00:00 31,7 13,0 8 4 WSW 1016,1 -
15.08.2019 04:00:00 31,7 13,0 8 4 W 1016,2 -
15.08.2019 03:00:00 31,7 13,0 9 5 WSW 1016,2 -
15.08.2019 02:00:00 31,7 13,0 8 4 WSW 1016,2 -
15.08.2019 01:00:00 31,7 13,0 8 4 W 1016,1 -
15.08.2019 00:00:00 31,7 13,0 8 4 SSW 1015,6 -
14.08.2019 23:00:00 31,7 13,0 0 0 N 1015,2 -
14.08.2019 22:00:00 31,7 13,0 8 4 SSW 1014,3 -
14.08.2019 21:00:00 31,7 13,0 9 5 W 1013,8 -
14.08.2019 20:00:00 31,7 13,0 8 4 SW 1013,6 40
14.08.2019 19:00:00 31,7 13,0 9 5 WSW 1013,8 -
14.08.2019 18:00:00 31,7 13,0 8 4 SE 1014,2 -
14.08.2019 17:00:00 31,7 13,0 11 6 SW 1014,7 40
14.08.2019 16:00:00 31,7 13,0 9 5 S 1015,5 -
14.08.2019 15:00:00 31,7 13,0 5 3 SW 1016,4 -
14.08.2019 14:00:00 31,7 13,0 5 3 SW 1017,0 30
14.08.2019 13:00:00 31,7 13,0 5 3 W 1018,1 -
14.08.2019 12:00:00 30,2 15,2 8 4 W 1018,5 -
14.08.2019 11:00:00 28,8 9,0 4 2 E 1018,9 30
14.08.2019 10:00:00 25,7 8,7 5 3 E 1019,0 -
14.08.2019 09:00:00 22,0 9,2 0 0 N 1018,9 -
14.08.2019 08:00:00 17,9 9,0 0 0 N 1018,6 -
14.08.2019 07:00:00 - - - - - - -
14.08.2019 06:00:00 - - - - - - -
14.08.2019 05:00:00 - - - - - - -
14.08.2019 04:00:00 - - - - - - -
14.08.2019 03:00:00 - - - - - - -
14.08.2019 02:00:00 - - - - - - -
14.08.2019 01:00:00 - - - - - - -
14.08.2019 00:00:00 - - - - - - -
13.08.2019 23:00:00 - - - - - - -
13.08.2019 22:00:00 - - - - - - -
13.08.2019 21:00:00 33,2 4,9 11 6 W 1013,5 -
13.08.2019 20:00:00 36,9 1,6 8 4 SSW 1013,0 40
13.08.2019 19:00:00 37,0 2,9 13 7 SW 1013,1 -
13.08.2019 18:00:00 37,3 3,1 8 4 SW 1013,4 -
13.08.2019 17:00:00 37,1 2,0 11 6 SW 1013,8 40
13.08.2019 16:00:00 36,7 3,8 11 6 S 1014,7 -
13.08.2019 15:00:00 35,5 7,5 8 4 SW 1015,4 -
13.08.2019 14:00:00 33,8 10,4 5 3 W 1015,9 40
13.08.2019 13:00:00 32,4 9,8 9 5 W 1016,4 -
13.08.2019 12:00:00 31,1 9,3 5 3 ESE 1016,8 -
13.08.2019 11:00:00 27,9 2,1 5 3 ENE 1016,9 50
13.08.2019 10:00:00 24,9 4,6 4 2 ESE 1017,0 -
13.08.2019 09:00:00 19,3 4,6 2 1 SW 1016,8 -
13.08.2019 08:00:00 16,3 5,8 4 2 SW 1016,4 50
13.08.2019 07:00:00 16,1 4,4 0 0 N 1015,6 -
13.08.2019 06:00:00 18,0 3,8 2 1 E 1015,3 -
13.08.2019 05:00:00 18,3 3,8 4 2 S 1015,5 -
13.08.2019 04:00:00 19,9 1,3 2 1 SSW 1015,3 -
13.08.2019 03:00:00 22,0 3,1 5 3 SSW 1015,2 -
13.08.2019 02:00:00 22,8 4,0 4 2 NW 1015,3 -
13.08.2019 01:00:00 23,4 4,6 5 3 S 1015,3 -
13.08.2019 00:00:00 24,4 4,2 2 1 S 1014,7 -

tt = temperature
td = dewpoint
ff = wind speed
dd = wind direction
ppp = reduced air pressure
vv = visibility

Next stations